Regional Weather Roundup
Issued by NWS

Home | Current Version | Previous Version | Text Only | Print | Product List | Glossary On
Versions: 1 2 3 4 5 6 7 8 9 10 11 12 13 14 15 16 17 18 19 20 21 22 23 24 25 26 27 28 29 30 31 32 33 34 35 36 37 38 39 40 41 42 43 44 45 46 47 48 49 50
000
ASUS43 KTOP 280859
RWRKS

WEATHER ROUNDUP FOR KANSAS
NATIONAL WEATHER SERVICE GOODLAND KS
400 AM CDT SUN AUG 28 2016

NOTE:  "FAIR" INDICATES FEW OR NO CLOUDS BELOW 12,000 FEET WITH NO
SIGNIFICANT WEATHER AND/OR OBSTRUCTIONS TO VISIBILITY.

KSZ001>006-013>018-027>032-041>047-281000-
NORTHWEST KANSAS

CITY           SKY/WX    TMP DP  RH WIND       PRES   REMARKS
GOODLAND       CLOUDY    62  59  90 S6        30.07R
HAYS           CLOUDY    66  57  72 CALM      30.06R
HILL CITY      MOCLDY    68  64  87 W3        30.06R
RUSSELL        CLOUDY    71  67  87 S9        30.05R
$$

KSZ061>065-074>080-084>089-281000-
SOUTHWEST KANSAS

CITY           SKY/WX    TMP DP  RH WIND       PRES   REMARKS
DODGE CITY     CLOUDY    65  59  81 S9        30.08R
ELKHART          N/A     62  58  87 S6          N/A
GARDEN CITY    CLOUDY    65  58  78 S13       30.07S
GREAT BEND     PTCLDY    70  61  73 S5        30.06R
LIBERAL        CLOUDY    64  57  77 W5        30.14F
$$

KSZ066>073-081>083-090>101-281000-
SOUTHEAST KANSAS

CITY           SKY/WX    TMP DP  RH WIND       PRES   REMARKS
CHANUTE        CLEAR     72  70  93 SE6       30.06R
COFFEYVILLE    CLEAR     71  69  93 CALM      30.05R
HUTCHINSON     CLEAR     72  69  90 SE5       30.06R
MEDICINE LODGE   N/A     71  68  90 SE5       30.04R
NEWTON         PTCLDY    71  68  90 SE7       30.07R
PARSONS        CLEAR     72  69  90 SE3       30.07R
WICHITA INTL   PTCLDY    72  68  87 S6        30.06R
WICHITA JABRA  PTCLDY    72  69  90 S7        30.06R
WINFIELD       CLEAR     73  70  90 CALM      30.07R
$$

KSZ007>012-019>026-033>040-048>060-102>105-281000-
NORTHEAST KANSAS

CITY           SKY/WX    TMP DP  RH WIND       PRES   REMARKS
CONCORDIA      CLEAR     68  66  93 CALM      30.06R
EMPORIA        PTCLDY    70  68  93 S7        30.06R
LAWRENCE       PTCLDY    70  69  97 E5        30.06S
MANHATTAN      MOCLDY    73  69  87 CALM      30.05R
OLATHE IND     CLEAR     73  70  90 SE6       30.08S
OLATHE EXE     CLEAR     72  69  90 SE5       30.08S
SALINA         MOCLDY    73  69  87 S6        30.04R
TOPEKA BILLARD MOCLDY    71  68  90 CALM      30.06S
TOPEKA FORBES  MOCLDY    72  69  90 SE6       30.06S
$$



USA.gov is the U.S. government's official web portal to all federal, state and local government web resources and services.